カタログに戻る

SHIJIAN 6 01A

SJ-6 01A

運用中科学SSO
NORAD 28413·PAYLOAD·🇨🇳 China

打ち上げ Sep 8, 2004 から Taiyuan Satellite Launch Center

Loading…

次のパス (今後24時間)

TLE

最新Source: Space-Track

元期: Sep 13, 2026, 15:51 UTC

1 28413U 04035A   26256.66047477  .00005226  00000-0  25241-3 0  9994
2 28413  97.5817 284.0498 0006060 172.5250 187.6075 15.19075605200898

AllMySatでSHIJIAN 6 01Aをリアルタイム追跡

Download on the App Store